Regional Weather Roundup
Issued by NWS

Home | Current Version | Previous Version | Graphics & Text | Print | Product List | Glossary On
Versions: 1 2 3 4 5 6 7 8 9 10 11 12 13 14 15 16 17 18 19 20 21 22 23 24 25 26 27 28 29 30 31 32 33 34 35 36 37 38 39 40 41 42 43 44 45 46 47 48 49 50
697
ASUS43 KLMK 210002
RWRKY
KENTUCKY REGIONAL WEATHER ROUNDUP
NATIONAL WEATHER SERVICE LOUISVILLE KY
800 PM EDT THU JUL 20 2017

NOTE "FAIR" INDICATES FEW OR NO CLOUDS BELOW 12,000 FEET
WITH NO SIGNIFICANT WEATHER AND/OR OBSTRUCTIONS TO VISIBILITY.

KYZ001>023-026-027-061>063-070>075-210100-
WESTERN AND SOUTH CENTRAL KENTUCKY

CITY           SKY/WX    TMP DP  RH WIND       PRES   REMARKS
PADUCAH        MOSUNNY   90  76  63 S3        30.00S HX 101
HENDERSON      PTSUNNY   87  76  69 SW6       29.99F HX  97
OWENSBORO      MOSUNNY   87  76  69 SW6       29.99F HX  97
HOPKINSVILLE   MOSUNNY   87  75  66 SW6       30.02S HX  97
BOWLING GREEN  MOSUNNY   90  74  59 W8        30.02S HX  99
GLASGOW        NOT AVBL
$$

KYZ024-025-028>034-038-045-046-053-210100-
NORTH CENTRAL KENTUCKY

CITY           SKY/WX    TMP DP  RH WIND       PRES   REMARKS
LOUISVILLE/SDF MOSUNNY   90  74  59 SW9       29.99S HX  99
LOUISVILLE/LOU SUNNY     90  73  57 SW7       30.00S HX  98
FORT KNOX      NOT AVBL
$$

KYZ035>037-039>044-047>052-055>060-089>105-210100-
NORTHEAST KENTUCKY

CITY           SKY/WX    TMP DP  RH WIND       PRES   REMARKS
LEXINGTON      CLOUDY    88  72  58 W5        30.03F HX  94
COVINGTON      MOCLDY    87  74  64 SW7       30.00F HX  95
FRANKFORT      PTCLDY    88  73  61 SW7       30.01F HX  95
$$

KYZ054-064>069-076>088-106>120-210100-
SOUTHEAST KENTUCKY

CITY           SKY/WX    TMP DP  RH WIND       PRES   REMARKS
JACKSON        CLOUDY    84  70  62 NW3       30.06R
LONDON         CLOUDY    86  70  58 MISG      30.06R HX  90
SOMERSET       CLOUDY    84  70  61 CALM      30.06R
MIDDLESBORO    PTCLDY    82  73  72 CALM      30.06R
MONTICELLO     PTCLDY    86  77  74 W10       30.07  HX  97
$$





USA.gov is the U.S. government's official web portal to all federal, state and local government web resources and services.